Location: Angwan Shehu
(11.2514°N, 7.4613°E)
Time: 13:13:09
(UTC+00:00)

SL-16 R/B - Pass Details

Date: 14 November 2019
Orbit: 842 x 846 km, 71.0° (Epoch: 15 December)

Event Time Altitude Azimuth Distance (km) Brightness Sun altitude
Rises 18:32:39 0° 191° (SSW) 3,388 5.7 -21.9°
Reaches altitude 10° 18:35:05 10° 190° (S) 2,454 4.9 -22.4°
Maximum altitude 18:40:42 74° 105° (ESE) 875 2.0 -23.8°
Enters shadow 18:42:01 53° 38° (NE) 1,027 2.3 -24.1°
